SPMAZ LYTV-LICR

Flight info

Callsign SPMAZ
Flight time 1h 40m
Altitude 25000
Route KOFER W36 CRAYE DCT OKIMO DCT CRN L869 CDC L137 GIMEL
Aircraft P46T/L-SBDGRWY/SB1

Departure

Time 2026-05-06 17:12
Airport Tivat Airport (LYTV)

Arrival

Time 2026-05-06 18:52
Airport Reggio Calabria Airport (LICR)
Time Latitude Longitude Altitude Speed Heading
2026-05-06 16:44 42.40935 18.72002 24 ft 0 kts 318°
2026-05-06 17:05 42.40936 18.72000 12 ft 2 kts 324°
2026-05-06 17:06 42.40941 18.71970 16 ft 5 kts 210°
2026-05-06 17:06 42.40950 18.71940 22 ft 5 kts 320°
2026-05-06 17:06 42.40985 18.71898 22 ft 8 kts 320°
2026-05-06 17:06 42.40998 18.71850 22 ft 3 kts 222°
2026-05-06 17:07 42.40996 18.71848 23 ft 0 kts 225°
2026-05-06 17:10 42.40982 18.71828 21 ft 7 kts 227°
2026-05-06 17:11 42.40900 18.71818 20 ft 22 kts 138°
2026-05-06 17:11 42.40650 18.72110 20 ft 75 kts 137°
2026-05-06 17:11 42.40163 18.72685 114 ft 105 kts 137°
2026-05-06 17:11 42.39618 18.73353 562 ft 101 kts 137°
2026-05-06 17:12 42.39080 18.73941 979 ft 104 kts 152°
2026-05-06 17:12 42.38341 18.74202 1347 ft 113 kts 171°
2026-05-06 17:12 42.37507 18.74442 1577 ft 134 kts 166°
2026-05-06 17:12 42.36541 18.74784 1876 ft 146 kts 164°
2026-05-06 17:13 42.35575 18.75188 2346 ft 144 kts 162°
2026-05-06 17:13 42.34638 18.75607 2765 ft 144 kts 162°
2026-05-06 17:13 42.33688 18.76035 3173 ft 143 kts 163°
2026-05-06 17:13 42.32733 18.76470 3562 ft 144 kts 164°
2026-05-06 17:14 42.31785 18.76900 4007 ft 144 kts 163°
2026-05-06 17:14 42.30828 18.77335 4470 ft 145 kts 164°
2026-05-06 17:14 42.29878 18.77765 4918 ft 147 kts 164°
2026-05-06 17:14 42.28901 18.78213 5356 ft 148 kts 165°
2026-05-06 17:15 42.27920 18.78648 5837 ft 148 kts 165°
2026-05-06 17:15 42.26935 18.79094 6233 ft 149 kts 165°
2026-05-06 17:15 42.25914 18.79238 6623 ft 148 kts 189°
2026-05-06 17:15 42.24920 18.78890 7002 ft 148 kts 198°
2026-05-06 17:16 42.23942 18.78511 7396 ft 149 kts 197°
2026-05-06 17:16 42.22942 18.78123 7778 ft 149 kts 197°
2026-05-06 17:16 42.21951 18.77736 8174 ft 149 kts 197°
2026-05-06 17:16 42.20943 18.77342 8571 ft 150 kts 198°
2026-05-06 17:17 42.19938 18.76950 8968 ft 150 kts 198°
2026-05-06 17:17 42.18944 18.76561 9368 ft 150 kts 198°
2026-05-06 17:17 42.17940 18.76169 9757 ft 151 kts 198°
2026-05-06 17:17 42.16926 18.75773 10129 ft 151 kts 198°
2026-05-06 17:18 42.15915 18.75378 10478 ft 152 kts 198°
2026-05-06 17:18 42.14892 18.74979 10821 ft 153 kts 199°
2026-05-06 17:18 42.13872 18.74581 11169 ft 154 kts 199°
2026-05-06 17:18 42.12833 18.74176 11513 ft 155 kts 199°
2026-05-06 17:19 42.11800 18.73772 11853 ft 156 kts 199°
2026-05-06 17:19 42.10749 18.73363 12202 ft 158 kts 200°
2026-05-06 17:19 42.09698 18.72954 12545 ft 159 kts 200°
2026-05-06 17:19 42.08627 18.72536 12891 ft 160 kts 200°
2026-05-06 17:20 42.07550 18.72117 13235 ft 161 kts 201°
2026-05-06 17:20 42.06478 18.71699 13575 ft 162 kts 201°
2026-05-06 17:20 42.05394 18.71277 13908 ft 163 kts 201°
2026-05-06 17:20 42.04291 18.70848 14200 ft 165 kts 201°
2026-05-06 17:21 42.03193 18.70421 14498 ft 166 kts 202°
2026-05-06 17:21 42.02074 18.69986 14789 ft 168 kts 202°
2026-05-06 17:21 42.00954 18.69551 15080 ft 169 kts 202°
2026-05-06 17:21 41.99814 18.69108 15377 ft 170 kts 202°
2026-05-06 17:22 41.98686 18.68671 15673 ft 171 kts 202°
2026-05-06 17:22 41.97536 18.68224 15967 ft 173 kts 202°
2026-05-06 17:22 41.96416 18.67661 16262 ft 171 kts 213°
2026-05-06 17:22 41.95360 18.66916 16547 ft 172 kts 212°
2026-05-06 17:23 41.94272 18.66211 16851 ft 174 kts 211°
2026-05-06 17:23 41.93181 18.65533 17147 ft 175 kts 211°
2026-05-06 17:23 41.92069 18.64846 17444 ft 176 kts 211°
2026-05-06 17:23 41.90951 18.64154 17740 ft 177 kts 211°
2026-05-06 17:24 41.89834 18.63463 18034 ft 178 kts 211°
2026-05-06 17:24 41.88701 18.62762 18325 ft 179 kts 211°
2026-05-06 17:24 41.87571 18.62063 18581 ft 180 kts 211°
2026-05-06 17:24 41.86421 18.61352 18843 ft 181 kts 211°
2026-05-06 17:25 41.85284 18.60649 19088 ft 182 kts 211°
2026-05-06 17:25 41.84126 18.59933 19344 ft 183 kts 211°
2026-05-06 17:25 41.82974 18.59222 19591 ft 184 kts 211°
2026-05-06 17:25 41.81802 18.58499 19843 ft 184 kts 211°
2026-05-06 17:26 41.80643 18.57783 20091 ft 185 kts 211°
2026-05-06 17:26 41.79475 18.57063 20339 ft 186 kts 212°
2026-05-06 17:26 41.78286 18.56329 20592 ft 187 kts 212°
2026-05-06 17:26 41.77107 18.55603 20840 ft 188 kts 212°
2026-05-06 17:27 41.75925 18.54874 21088 ft 189 kts 212°
2026-05-06 17:27 41.74718 18.54131 21334 ft 190 kts 212°
2026-05-06 17:27 41.73525 18.53396 21573 ft 191 kts 212°
2026-05-06 17:27 41.72309 18.52648 21823 ft 192 kts 212°
2026-05-06 17:28 41.71093 18.51900 22065 ft 192 kts 212°
2026-05-06 17:28 41.69880 18.51155 22312 ft 194 kts 212°
2026-05-06 17:28 41.68663 18.50406 22549 ft 194 kts 212°
2026-05-06 17:28 41.67424 18.49646 22786 ft 195 kts 212°
2026-05-06 17:29 41.66181 18.48882 23030 ft 196 kts 212°
2026-05-06 17:29 41.64945 18.48124 23265 ft 197 kts 212°
2026-05-06 17:29 41.63707 18.47364 23496 ft 198 kts 212°
2026-05-06 17:29 41.62451 18.46594 23711 ft 199 kts 212°
2026-05-06 17:30 41.61185 18.45818 23908 ft 199 kts 212°
2026-05-06 17:30 41.59932 18.45050 24104 ft 200 kts 212°
2026-05-06 17:30 41.58659 18.44270 24299 ft 201 kts 213°
2026-05-06 17:30 41.57395 18.43497 24494 ft 201 kts 213°
2026-05-06 17:31 41.56110 18.42711 24696 ft 202 kts 213°
2026-05-06 17:31 41.54840 18.41934 24882 ft 202 kts 213°
2026-05-06 17:31 41.53549 18.41143 25034 ft 206 kts 213°
2026-05-06 17:31 41.52225 18.40327 25039 ft 215 kts 213°
2026-05-06 17:32 41.50846 18.39482 25047 ft 221 kts 213°
2026-05-06 17:32 41.49432 18.38619 25045 ft 227 kts 212°
2026-05-06 17:32 41.47992 18.37740 25045 ft 231 kts 212°
2026-05-06 17:32 41.46505 18.36833 25044 ft 234 kts 212°
2026-05-06 17:33 41.45031 18.35934 25046 ft 235 kts 212°
2026-05-06 17:33 41.43533 18.35022 25041 ft 235 kts 212°
2026-05-06 17:33 41.42054 18.34122 25042 ft 235 kts 212°
2026-05-06 17:33 41.40562 18.33214 25039 ft 234 kts 212°
2026-05-06 17:34 41.39090 18.32318 25039 ft 234 kts 212°
2026-05-06 17:34 41.37600 18.31412 25038 ft 234 kts 212°
2026-05-06 17:34 41.36130 18.30519 25035 ft 234 kts 212°
2026-05-06 17:34 41.34642 18.29615 25030 ft 234 kts 212°
2026-05-06 17:35 41.33179 18.28726 25026 ft 234 kts 212°
2026-05-06 17:35 41.31689 18.27823 25023 ft 234 kts 212°
2026-05-06 17:35 41.30204 18.26922 25024 ft 234 kts 212°
2026-05-06 17:36 41.27259 18.25137 25020 ft 233 kts 212°
2026-05-06 17:36 41.25798 18.24252 25019 ft 233 kts 212°
2026-05-06 17:36 41.24318 18.23357 25019 ft 233 kts 212°
2026-05-06 17:36 41.22853 18.22470 25021 ft 233 kts 212°
2026-05-06 17:37 41.21375 18.21576 25020 ft 233 kts 212°
2026-05-06 17:37 41.19902 18.20686 25019 ft 233 kts 212°
2026-05-06 17:37 41.18423 18.19792 25017 ft 233 kts 213°
2026-05-06 17:37 41.16964 18.18912 25017 ft 232 kts 212°
2026-05-06 17:38 41.15496 18.18025 25021 ft 232 kts 212°
2026-05-06 17:38 41.14012 18.17130 25017 ft 232 kts 212°
2026-05-06 17:38 41.12552 18.16250 25016 ft 232 kts 213°
2026-05-06 17:38 41.11090 18.15369 25017 ft 232 kts 212°
2026-05-06 17:39 41.09610 18.14477 25013 ft 232 kts 212°
2026-05-06 17:39 41.08152 18.13599 25012 ft 232 kts 213°
2026-05-06 17:39 41.06674 18.12710 25013 ft 232 kts 213°
2026-05-06 17:39 41.05214 18.11832 25014 ft 232 kts 212°
2026-05-06 17:40 41.03766 18.10962 25013 ft 231 kts 212°
2026-05-06 17:40 41.02286 18.10073 25018 ft 231 kts 212°
2026-05-06 17:40 41.00819 18.09191 25014 ft 231 kts 212°
2026-05-06 17:40 40.99355 18.08312 25019 ft 231 kts 212°
2026-05-06 17:41 40.97886 18.07431 25015 ft 231 kts 212°
2026-05-06 17:41 40.96439 18.06563 25011 ft 231 kts 212°
2026-05-06 17:41 40.94976 18.05686 25012 ft 231 kts 212°
2026-05-06 17:41 40.93524 18.04817 25014 ft 230 kts 212°
2026-05-06 17:42 40.92018 18.04028 25014 ft 232 kts 209°
2026-05-06 17:42 40.90504 18.03259 25012 ft 232 kts 209°
2026-05-06 17:42 40.89018 18.02496 25012 ft 232 kts 209°
2026-05-06 17:42 40.87508 18.01721 25012 ft 232 kts 209°
2026-05-06 17:43 40.86001 18.00949 25014 ft 231 kts 209°
2026-05-06 17:43 40.84521 18.00191 25012 ft 231 kts 209°
2026-05-06 17:43 40.83015 17.99421 25013 ft 231 kts 209°
2026-05-06 17:43 40.81509 17.98651 25014 ft 231 kts 209°
2026-05-06 17:44 40.80023 17.97892 25013 ft 231 kts 209°
2026-05-06 17:44 40.78525 17.97126 25011 ft 231 kts 209°
2026-05-06 17:44 40.77024 17.96360 25015 ft 231 kts 209°
2026-05-06 17:44 40.75527 17.95595 25014 ft 230 kts 209°
2026-05-06 17:45 40.74050 17.94842 25012 ft 230 kts 209°
2026-05-06 17:45 40.72559 17.94082 25012 ft 230 kts 209°
2026-05-06 17:45 40.71064 17.93320 25013 ft 230 kts 209°
2026-05-06 17:45 40.69573 17.92561 25013 ft 230 kts 209°
2026-05-06 17:46 40.68077 17.91799 25015 ft 229 kts 209°
2026-05-06 17:46 40.66602 17.91049 25013 ft 229 kts 208°
2026-05-06 17:46 40.65105 17.90287 25013 ft 229 kts 208°
2026-05-06 17:46 40.63631 17.89538 25011 ft 229 kts 208°
2026-05-06 17:47 40.62131 17.88775 25015 ft 229 kts 208°
2026-05-06 17:47 40.60659 17.88028 25014 ft 229 kts 208°
2026-05-06 17:47 40.59157 17.87265 25013 ft 229 kts 208°
2026-05-06 17:47 40.57682 17.86517 25015 ft 229 kts 208°
2026-05-06 17:48 40.56193 17.85762 25013 ft 229 kts 208°
2026-05-06 17:48 40.54702 17.85006 25015 ft 229 kts 208°
2026-05-06 17:48 40.53225 17.84257 25016 ft 229 kts 208°
2026-05-06 17:48 40.51734 17.83503 25015 ft 229 kts 208°
2026-05-06 17:49 40.50245 17.82749 25017 ft 229 kts 208°
2026-05-06 17:49 40.48765 17.82000 25016 ft 229 kts 208°
2026-05-06 17:49 40.47278 17.81248 25015 ft 229 kts 208°
2026-05-06 17:49 40.45786 17.80494 25016 ft 229 kts 208°
2026-05-06 17:50 40.44314 17.79750 25020 ft 229 kts 208°
2026-05-06 17:50 40.42820 17.78995 25021 ft 229 kts 208°
2026-05-06 17:50 40.41345 17.78251 25018 ft 229 kts 208°
2026-05-06 17:50 40.39866 17.77505 25022 ft 229 kts 208°
2026-05-06 17:51 40.38381 17.76756 25018 ft 229 kts 208°
2026-05-06 17:51 40.36883 17.76001 25028 ft 228 kts 207°
2026-05-06 17:51 40.35408 17.75258 25025 ft 228 kts 208°
2026-05-06 17:51 40.33935 17.74515 25027 ft 228 kts 207°
2026-05-06 17:52 40.32447 17.73767 25024 ft 228 kts 207°
2026-05-06 17:52 40.30958 17.73018 25022 ft 228 kts 207°
2026-05-06 17:52 40.29491 17.72280 25022 ft 228 kts 207°
2026-05-06 17:52 40.28003 17.71532 25024 ft 228 kts 207°
2026-05-06 17:53 40.26532 17.70793 25022 ft 228 kts 207°
2026-05-06 17:53 40.25046 17.70047 25022 ft 228 kts 207°
2026-05-06 17:53 40.23565 17.69304 25020 ft 228 kts 207°
2026-05-06 17:53 40.22095 17.68566 25024 ft 228 kts 207°
2026-05-06 17:54 40.20604 17.67819 25018 ft 228 kts 207°
2026-05-06 17:54 40.19138 17.67084 25016 ft 228 kts 207°
2026-05-06 17:54 40.17668 17.66347 25018 ft 228 kts 207°
2026-05-06 17:54 40.16185 17.65605 25015 ft 228 kts 207°
2026-05-06 17:55 40.14700 17.64861 25019 ft 228 kts 207°
2026-05-06 17:55 40.13215 17.64119 25014 ft 228 kts 207°
2026-05-06 17:55 40.11748 17.63385 25014 ft 227 kts 207°
2026-05-06 17:55 40.10278 17.62650 25012 ft 228 kts 207°
2026-05-06 17:56 40.08787 17.61906 25010 ft 228 kts 207°
2026-05-06 17:56 40.07322 17.61174 25010 ft 228 kts 207°
2026-05-06 17:56 40.05833 17.60430 25008 ft 228 kts 207°
2026-05-06 17:56 40.04367 17.59699 25009 ft 227 kts 207°
2026-05-06 17:57 40.02877 17.58956 25009 ft 227 kts 207°
2026-05-06 17:57 40.01407 17.58224 25009 ft 227 kts 207°
2026-05-06 17:57 39.99920 17.57482 25007 ft 227 kts 207°
2026-05-06 17:57 39.98446 17.56749 25008 ft 227 kts 207°
2026-05-06 17:58 39.96975 17.56017 25004 ft 227 kts 207°
2026-05-06 17:58 39.95508 17.55287 25004 ft 227 kts 207°
2026-05-06 17:58 39.94020 17.54547 25004 ft 227 kts 207°
2026-05-06 17:58 39.92552 17.53817 25006 ft 227 kts 207°
2026-05-06 17:59 39.91079 17.53085 25006 ft 227 kts 207°
2026-05-06 17:59 39.89591 17.52346 25006 ft 227 kts 207°
2026-05-06 17:59 39.88115 17.51614 25004 ft 228 kts 207°
2026-05-06 17:59 39.86641 17.50883 25002 ft 227 kts 206°
2026-05-06 18:00 39.85168 17.50152 25005 ft 228 kts 206°
2026-05-06 18:00 39.83681 17.49415 25001 ft 228 kts 206°
2026-05-06 18:00 39.82211 17.48687 25002 ft 228 kts 206°
2026-05-06 18:00 39.80738 17.47958 25009 ft 227 kts 206°
2026-05-06 18:01 39.79260 17.47226 25004 ft 227 kts 206°
2026-05-06 18:01 39.77772 17.46490 24998 ft 227 kts 206°
2026-05-06 18:01 39.76302 17.45763 24998 ft 227 kts 206°
2026-05-06 18:01 39.74833 17.45037 25005 ft 227 kts 206°
2026-05-06 18:02 39.73344 17.44301 25000 ft 227 kts 206°
2026-05-06 18:02 39.71872 17.43574 25001 ft 227 kts 206°
2026-05-06 18:02 39.70402 17.42848 25006 ft 227 kts 206°
2026-05-06 18:02 39.68934 17.42124 25002 ft 227 kts 206°
2026-05-06 18:03 39.67441 17.41388 25002 ft 227 kts 206°
2026-05-06 18:03 39.65977 17.40666 25001 ft 227 kts 206°
2026-05-06 18:03 39.64504 17.39940 25001 ft 227 kts 206°
2026-05-06 18:03 39.63018 17.39208 25003 ft 227 kts 206°
2026-05-06 18:04 39.61551 17.38486 25002 ft 227 kts 206°
2026-05-06 18:04 39.60082 17.37763 25001 ft 227 kts 206°
2026-05-06 18:04 39.58597 17.37033 25008 ft 227 kts 206°
2026-05-06 18:04 39.57135 17.36315 25011 ft 227 kts 206°
2026-05-06 18:05 39.55659 17.35589 25011 ft 227 kts 206°
2026-05-06 18:05 39.54185 17.34865 25015 ft 227 kts 206°
2026-05-06 18:05 39.52708 17.34140 25014 ft 227 kts 206°
2026-05-06 18:05 39.51235 17.33418 25018 ft 226 kts 206°
2026-05-06 18:06 39.49763 17.32695 25020 ft 226 kts 206°
2026-05-06 18:06 39.48288 17.31972 25025 ft 226 kts 206°
2026-05-06 18:06 39.47314 17.31495 25022 ft 226 kts 206°
2026-05-06 18:06 39.45838 17.30772 25026 ft 226 kts 206°
2026-05-06 18:07 39.44366 17.30051 25030 ft 226 kts 206°
2026-05-06 18:07 39.42894 17.29331 25033 ft 226 kts 206°
2026-05-06 18:07 39.41421 17.28610 25033 ft 226 kts 206°
2026-05-06 18:07 39.39948 17.27890 25043 ft 226 kts 206°
2026-05-06 18:08 39.38479 17.27172 25042 ft 226 kts 206°
2026-05-06 18:08 39.37007 17.26453 25045 ft 226 kts 206°
2026-05-06 18:08 39.35535 17.25734 25051 ft 226 kts 206°
2026-05-06 18:08 39.34065 17.25016 25053 ft 226 kts 206°
2026-05-06 18:09 39.32591 17.24297 25056 ft 226 kts 206°
2026-05-06 18:09 39.31120 17.23580 25054 ft 226 kts 206°
2026-05-06 18:09 39.29648 17.22862 25054 ft 226 kts 206°
2026-05-06 18:09 39.28177 17.22145 25058 ft 226 kts 206°
2026-05-06 18:10 39.26704 17.21428 25054 ft 226 kts 206°
2026-05-06 18:10 39.25231 17.20711 25054 ft 226 kts 206°
2026-05-06 18:10 39.23758 17.19994 25056 ft 226 kts 206°
2026-05-06 18:10 39.22291 17.19281 25050 ft 226 kts 206°
2026-05-06 18:11 39.20817 17.18565 25049 ft 226 kts 206°
2026-05-06 18:11 39.19344 17.17849 25043 ft 226 kts 206°
2026-05-06 18:11 39.17873 17.17134 25039 ft 226 kts 206°
2026-05-06 18:11 39.16399 17.16419 25037 ft 226 kts 206°
2026-05-06 18:12 39.14948 17.15714 25030 ft 226 kts 206°
2026-05-06 18:12 39.13477 17.15001 25029 ft 226 kts 206°
2026-05-06 18:12 39.12005 17.14287 25023 ft 226 kts 206°
2026-05-06 18:12 39.10535 17.13575 25026 ft 226 kts 206°
2026-05-06 18:13 39.09064 17.12863 25017 ft 226 kts 206°
2026-05-06 18:13 39.07593 17.12150 25011 ft 226 kts 206°
2026-05-06 18:13 39.06122 17.11438 25012 ft 226 kts 206°
2026-05-06 18:13 39.04648 17.10725 25013 ft 226 kts 206°
2026-05-06 18:14 39.03174 17.10013 25014 ft 226 kts 206°
2026-05-06 18:14 39.01709 17.09275 25016 ft 225 kts 210°
2026-05-06 18:14 39.00411 17.08203 25028 ft 221 kts 223°
2026-05-06 18:14 38.99351 17.06800 25035 ft 218 kts 235°
2026-05-06 18:15 38.98572 17.05138 25031 ft 218 kts 247°
2026-05-06 18:15 38.97986 17.03349 25029 ft 217 kts 248°
2026-05-06 18:15 38.97383 17.01562 25032 ft 218 kts 248°
2026-05-06 18:15 38.96784 16.99774 25030 ft 218 kts 248°
2026-05-06 18:16 38.96187 16.97983 25031 ft 218 kts 248°
2026-05-06 18:16 38.95591 16.96190 25032 ft 218 kts 248°
2026-05-06 18:16 38.94994 16.94401 25036 ft 218 kts 248°
2026-05-06 18:16 38.94397 16.92615 25038 ft 218 kts 248°
2026-05-06 18:17 38.93800 16.90826 25045 ft 218 kts 248°
2026-05-06 18:17 38.93203 16.89040 25049 ft 217 kts 248°
2026-05-06 18:17 38.92606 16.87257 25053 ft 217 kts 248°
2026-05-06 18:17 38.92010 16.85476 25058 ft 217 kts 248°
2026-05-06 18:18 38.91412 16.83691 25060 ft 217 kts 248°
2026-05-06 18:18 38.90816 16.81911 25068 ft 217 kts 248°
2026-05-06 18:18 38.90219 16.80130 25073 ft 217 kts 248°
2026-05-06 18:18 38.89623 16.78355 25074 ft 217 kts 248°
2026-05-06 18:19 38.89027 16.76579 25081 ft 217 kts 248°
2026-05-06 18:19 38.88437 16.74822 25085 ft 216 kts 248°
2026-05-06 18:19 38.87837 16.73039 25090 ft 216 kts 248°
2026-05-06 18:19 38.87240 16.71262 25094 ft 216 kts 248°
2026-05-06 18:20 38.86649 16.69507 25098 ft 216 kts 248°
2026-05-06 18:20 38.86051 16.67732 25103 ft 216 kts 248°
2026-05-06 18:20 38.85460 16.65976 25094 ft 216 kts 248°
2026-05-06 18:20 38.84869 16.64204 25086 ft 216 kts 248°
2026-05-06 18:21 38.84292 16.62424 25079 ft 215 kts 249°
2026-05-06 18:21 38.83695 16.60686 25071 ft 215 kts 247°
2026-05-06 18:21 38.83074 16.58920 25071 ft 215 kts 248°
2026-05-06 18:21 38.82481 16.57175 25063 ft 215 kts 248°
2026-05-06 18:22 38.81886 16.55408 25057 ft 215 kts 248°
2026-05-06 18:22 38.81296 16.53668 25049 ft 214 kts 248°
2026-05-06 18:22 38.80699 16.51910 25041 ft 214 kts 248°
2026-05-06 18:22 38.80104 16.50150 24813 ft 220 kts 248°
2026-05-06 18:23 38.79492 16.48337 24462 ft 224 kts 248°
2026-05-06 18:23 38.78866 16.46492 24110 ft 225 kts 248°
2026-05-06 18:23 38.78244 16.44665 23788 ft 225 kts 248°
2026-05-06 18:23 38.77620 16.42833 23487 ft 222 kts 248°
2026-05-06 18:24 38.77003 16.41024 23229 ft 218 kts 248°
2026-05-06 18:24 38.76407 16.39275 22985 ft 215 kts 248°
2026-05-06 18:24 38.75736 16.37566 22736 ft 214 kts 239°
2026-05-06 18:24 38.74800 16.36078 22500 ft 214 kts 229°
2026-05-06 18:25 38.73679 16.34838 22251 ft 216 kts 224°
2026-05-06 18:25 38.72530 16.33608 21972 ft 216 kts 225°
2026-05-06 18:25 38.71380 16.32362 21688 ft 217 kts 225°
2026-05-06 18:25 38.70218 16.31110 21394 ft 218 kts 224°
2026-05-06 18:26 38.69053 16.29857 21101 ft 218 kts 224°
2026-05-06 18:26 38.67903 16.28623 20807 ft 218 kts 224°
2026-05-06 18:26 38.66737 16.27371 20534 ft 217 kts 224°
2026-05-06 18:26 38.65585 16.26133 20283 ft 213 kts 224°
2026-05-06 18:27 38.64469 16.24937 20060 ft 210 kts 224°
2026-05-06 18:27 38.63356 16.23743 19838 ft 208 kts 224°
2026-05-06 18:27 38.62248 16.22555 19597 ft 207 kts 224°
2026-05-06 18:27 38.61144 16.21371 19335 ft 207 kts 224°
2026-05-06 18:28 38.60036 16.20183 19063 ft 207 kts 224°
2026-05-06 18:28 38.58940 16.19009 18797 ft 207 kts 224°
2026-05-06 18:28 38.57826 16.17816 18511 ft 207 kts 224°
2026-05-06 18:28 38.56718 16.16631 18227 ft 207 kts 224°
2026-05-06 18:29 38.55629 16.15467 17942 ft 206 kts 224°
2026-05-06 18:29 38.54542 16.14305 17715 ft 201 kts 223°
2026-05-06 18:29 38.53471 16.13161 17525 ft 198 kts 223°
2026-05-06 18:29 38.52429 16.12048 17320 ft 196 kts 223°
2026-05-06 18:30 38.51375 16.10922 17048 ft 198 kts 223°
2026-05-06 18:30 38.50310 16.09783 16777 ft 199 kts 223°
2026-05-06 18:30 38.49258 16.08660 16528 ft 199 kts 223°
2026-05-06 18:30 38.48190 16.07521 16257 ft 200 kts 223°
2026-05-06 18:31 38.47131 16.06392 16000 ft 200 kts 223°
2026-05-06 18:31 38.46057 16.05248 15745 ft 199 kts 222°
2026-05-06 18:31 38.44997 16.04116 15502 ft 198 kts 222°
2026-05-06 18:31 38.43944 16.02990 15254 ft 198 kts 222°
2026-05-06 18:32 38.42896 16.01870 15000 ft 198 kts 222°
2026-05-06 18:32 38.41839 16.00742 14749 ft 197 kts 222°
2026-05-06 18:32 38.40798 15.99632 14508 ft 197 kts 222°
2026-05-06 18:32 38.39744 15.98508 14268 ft 194 kts 221°
2026-05-06 18:33 38.38728 15.97424 14074 ft 191 kts 221°
2026-05-06 18:33 38.37717 15.96347 13880 ft 188 kts 221°
2026-05-06 18:33 38.36712 15.95276 13636 ft 188 kts 221°
2026-05-06 18:33 38.35710 15.94210 13422 ft 186 kts 221°
2026-05-06 18:34 38.34728 15.93164 13205 ft 186 kts 220°
2026-05-06 18:34 38.33732 15.92105 12985 ft 186 kts 220°
2026-05-06 18:34 38.31813 15.90063 12557 ft 185 kts 220°
2026-05-06 18:35 38.30812 15.88999 12266 ft 187 kts 220°
2026-05-06 18:35 38.29828 15.87953 12102 ft 183 kts 220°
2026-05-06 18:35 38.28851 15.86916 11885 ft 182 kts 220°
2026-05-06 18:35 38.27881 15.85887 11654 ft 183 kts 220°
2026-05-06 18:36 38.26904 15.84849 11433 ft 182 kts 220°
2026-05-06 18:36 38.25928 15.83814 11209 ft 183 kts 220°
2026-05-06 18:36 38.24957 15.82785 10999 ft 183 kts 219°
2026-05-06 18:36 38.23981 15.81750 10759 ft 184 kts 219°
2026-05-06 18:37 38.22990 15.80699 10521 ft 185 kts 219°
2026-05-06 18:37 38.22329 15.79996 10359 ft 187 kts 219°
2026-05-06 18:37 38.20989 15.78580 10039 ft 185 kts 218°
2026-05-06 18:37 38.20005 15.77539 9782 ft 187 kts 219°
2026-05-06 18:38 38.19001 15.76474 9583 ft 184 kts 219°
2026-05-06 18:38 38.18022 15.75440 9291 ft 187 kts 218°
2026-05-06 18:38 38.17012 15.74373 9019 ft 188 kts 219°
2026-05-06 18:38 38.16350 15.73673 8793 ft 186 kts 219°
2026-05-06 18:39 38.15093 15.72345 8664 ft 171 kts 218°
2026-05-06 18:39 38.14490 15.71709 8602 ft 167 kts 218°
2026-05-06 18:39 38.13606 15.70780 8497 ft 163 kts 218°
2026-05-06 18:40 38.12044 15.68705 8325 ft 166 kts 240°
2026-05-06 18:40 38.11687 15.67294 8215 ft 171 kts 258°
2026-05-06 18:40 38.11714 15.65766 8116 ft 177 kts 276°
2026-05-06 18:40 38.12162 15.64290 8026 ft 183 kts 296°
2026-05-06 18:41 38.13010 15.63077 7935 ft 189 kts 318°
2026-05-06 18:41 38.14189 15.62308 7853 ft 193 kts 342°
2026-05-06 18:41 38.15488 15.61879 7750 ft 193 kts 343°
2026-05-06 18:41 38.16786 15.61432 7658 ft 193 kts 343°
2026-05-06 18:42 38.18064 15.60994 7558 ft 192 kts 343°
2026-05-06 18:42 38.19359 15.60552 7452 ft 192 kts 343°
2026-05-06 18:42 38.20655 15.60110 7350 ft 192 kts 343°
2026-05-06 18:42 38.21944 15.59673 7263 ft 192 kts 343°
2026-05-06 18:43 38.23213 15.59238 7172 ft 191 kts 343°
2026-05-06 18:43 38.24512 15.58793 7078 ft 191 kts 343°
2026-05-06 18:43 38.25789 15.58357 6897 ft 193 kts 344°
2026-05-06 18:43 38.27095 15.57901 6651 ft 195 kts 344°
2026-05-06 18:44 38.28399 15.57446 6410 ft 194 kts 344°
2026-05-06 18:44 38.29691 15.56954 6154 ft 192 kts 334°
2026-05-06 18:44 38.30635 15.55850 5868 ft 187 kts 295°
2026-05-06 18:44 38.30815 15.54276 5590 ft 179 kts 255°
2026-05-06 18:45 38.30183 15.53005 5321 ft 172 kts 215°
2026-05-06 18:45 38.29065 15.52603 5051 ft 169 kts 175°
2026-05-06 18:45 38.28027 15.53282 4798 ft 173 kts 137°
2026-05-06 18:45 38.27161 15.54303 4566 ft 169 kts 148°
2026-05-06 18:46 38.26118 15.54976 4322 ft 167 kts 157°
2026-05-06 18:46 38.25055 15.55565 4084 ft 169 kts 159°
2026-05-06 18:46 38.23962 15.56134 3834 ft 168 kts 159°
2026-05-06 18:46 38.22889 15.56688 3596 ft 168 kts 159°
2026-05-06 18:47 38.21810 15.57241 3373 ft 164 kts 159°
2026-05-06 18:47 38.20763 15.57783 3152 ft 161 kts 159°
2026-05-06 18:47 38.19724 15.58315 2911 ft 160 kts 159°
2026-05-06 18:47 38.18699 15.58844 2671 ft 160 kts 159°
2026-05-06 18:48 38.17665 15.59374 2430 ft 161 kts 159°
2026-05-06 18:48 38.16626 15.59907 2174 ft 161 kts 160°
2026-05-06 18:48 38.15602 15.60432 1908 ft 150 kts 160°
2026-05-06 18:48 38.14694 15.60903 1630 ft 136 kts 160°
2026-05-06 18:49 38.13846 15.61344 1388 ft 127 kts 160°
2026-05-06 18:49 38.13077 15.61741 1236 ft 111 kts 160°
2026-05-06 18:49 38.12427 15.62078 1103 ft 94 kts 159°
2026-05-06 18:49 38.11840 15.62386 990 ft 90 kts 159°
2026-05-06 18:50 38.11270 15.62706 897 ft 90 kts 159°
2026-05-06 18:50 38.10690 15.62994 798 ft 86 kts 162°
2026-05-06 18:50 38.10150 15.63275 695 ft 85 kts 162°
2026-05-06 18:50 38.09590 15.63586 560 ft 87 kts 160°
2026-05-06 18:51 38.09043 15.63916 370 ft 86 kts 156°
2026-05-06 18:51 38.08521 15.64249 256 ft 83 kts 156°
2026-05-06 18:51 38.08010 15.64582 142 ft 81 kts 158°
2026-05-06 18:51 38.07566 15.64868 75 ft 73 kts 158°
2026-05-06 18:52 38.07167 15.65121 45 ft 53 kts 153°
2026-05-06 18:52 38.06935 15.65272 40 ft 22 kts 154°
2026-05-06 18:52 38.06867 15.65302 39 ft 3 kts 165°
2026-05-06 18:52 38.06867 15.65314 38 ft 4 kts 18°
2026-05-06 18:53 38.06916 15.65287 39 ft 9 kts 335°
2026-05-06 18:53 38.07005 15.65229 40 ft 20 kts 332°
2026-05-06 18:53 38.07124 15.65144 43 ft 20 kts 330°
2026-05-06 18:53 38.07252 15.65071 48 ft 20 kts 329°
2026-05-06 18:54 38.07370 15.64995 55 ft 14 kts 345°
2026-05-06 18:54 38.07401 15.65043 57 ft 7 kts 67°
2026-05-06 18:54 38.07419 15.65091 58 ft 5 kts 58°
2026-05-06 18:54 38.07428 15.65124 60 ft 4 kts 165°
2026-05-06 18:55 38.07426 15.65124 60 ft 0 kts 162°